Skip Page Navigation
NASA JPL Caltech
NASA Logo - Jet Propulsion Laboratory + View the NASA Portal
+ Center for Near-Earth Object Studies
JPL Home Earth Solar System Stars & Galaxies Technology
JPL Solar System Dynamics
BODIES ORBITS EPHEMERIDES TOOLS PHYSICAL DATA DISCOVERY FAQ SITE MAP
IMPORTANT: The SSD Announcement email list is now available. Major changes are coming in the near future, including possible hostname and/or URL changes. To be notified of such changes, subscribe to this email list.

Please visit this page for more details.


JPL Small-Body Database Browser
Search: [ help ]  
359153 (2009 BF124)
Classification: Main-belt Asteroid          SPK-ID: 2359153
Ephemeris | Orbit Diagram | Orbital Elements | Mission Design | Physical Parameters | Discovery Circumstances | Close-Approach Data ]

[ show orbit diagram ]
Orbital Elements at Epoch 2458600.5 (2019-Apr-27.0) TDB
Reference: JPL 8 (heliocentric ecliptic J2000)
 Element Value Uncertainty (1-sigma)   Units 
e .08804637630508094 1.4273e-07  
a 2.435830163794689 4.252e-08 au
q 2.221364144577955 3.2306e-07 au
i 5.944483707088814 9.7623e-06 deg
node 316.8350395866979 6.1194e-05 deg
peri 171.4729829186684 9.3288e-05 deg
M 262.7604181214487 8.6904e-05 deg
tp 2458975.567570342741
(2020-May-06.06757034)
0.00034299 TDB
period 1388.573693087525
3.80
3.6358e-05
9.954e-08
d
yr
n .259258836453636 6.7884e-09 deg/d
Q 2.650296183011423 4.6264e-08 au
  Orbit Determination Parameters
   # obs. used (total)      83  
   data-arc span      4956 days (13.57 yr)  
   first obs. used      2005-01-17  
   last obs. used      2018-08-13  
   planetary ephem.      DE431  
   SB-pert. ephem.      SB431-N16  
   condition code      0  
   norm. resid. RMS      .59723  
   source      ORB  
   producer      Otto Matic  
   solution date      2019-Jul-14 11:48:08  

Additional Information
 Earth MOID = 1.23681 au 
 Jupiter MOID = 2.38736 au 
 T_jup = 3.492 
[ show covariance matrix ]

Ephemeris | Orbit Diagram | Orbital Elements | Mission Design | Physical Parameters | Discovery Circumstances | Close-Approach Data ]

Physical Parameter Table
Parameter Symbol Value Units Sigma Reference Notes
absolute magnitude H 17.5   n/a MPO455591  

359153 (2009 BF124)          Discovered 2009-Jan-31 by Spacewatch at Kitt Peak
Reference: 20130327/Numbers.arcLast Updated: 2013-03-29

[ show close-approach data ]
Ephemeris | Orbit Diagram | Orbital Elements | Mission Design | Physical Parameters | Discovery Circumstances | Close-Approach Data ]
ABOUT SSD CREDITS/AWARDS PRIVACY/COPYRIGHT GLOSSARY LINKS
FirstGov
(server date/time)  
NASA Home Page
Site Manager:   Ryan S. Park
Webmaster  Alan B. Chamberlin